This is the latest recevied weather packets stored in our database for station/object K5BOU. If no packets are shown the sender has not sent any weather packets the latest 10 day(s).
| Time | Temp. | Humidity | Pressure | Rain* | Wind** | Luminosity | Snow |
|---|---|---|---|---|---|---|---|
| 1777738005 | 20° C | 70% | 1018.7 hPa | 0 mm | - | 528 W/m² | - |
| 1777737704 | 20° C | 71% | 1018.7 hPa | 0 mm | - | 582 W/m² | - |
| 1777737401 | 19.44° C | 72% | 1018.4 hPa | 0 mm | - | 803 W/m² | - |
| 1777737098 | 20° C | 72% | 1018.7 hPa | 0 mm | - | 798 W/m² | - |
| 1777736794 | 19.44° C | 73% | 1018.5 hPa | 0 mm | - | 800 W/m² | - |
| 1777736172 | 19.44° C | 74% | 1018.7 hPa | 0 mm | - | 760 W/m² | - |
| 1777735869 | 19.44° C | 75% | 1018.6 hPa | 0 mm | - | 727 W/m² | - |
| 1777735566 | 19.44° C | 76% | 1018.4 hPa | 0 mm | - | 722 W/m² | - |
| 1777735264 | 18.89° C | 76% | 1018.6 hPa | 0 mm | - | 702 W/m² | - |
| 1777734960 | 18.33° C | 78% | 1018.5 hPa | 0 mm | - | 684 W/m² | - |
| 1777734658 | 18.33° C | 79% | 1018.4 hPa | 0 mm | - | 663 W/m² | - |
| 1777734355 | 17.78° C | 79% | 1018.7 hPa | 0 mm | - | 645 W/m² | - |
| 1777734051 | 17.78° C | 80% | 1018.7 hPa | 0 mm | - | 626 W/m² | - |
| 1777733748 | 17.78° C | 81% | 1018.6 hPa | 0 mm | - | 604 W/m² | - |
| 1777733445 | 17.78° C | 80% | 1018.6 hPa | 0 mm | - | 612 W/m² | - |
| 1777733140 | 17.22° C | 81% | 1018.7 hPa | 0 mm | - | 551 W/m² | - |
| 1777732837 | 17.78° C | 83% | 1018.4 hPa | 0 mm | - | 564 W/m² | - |
| 1777732534 | 17.78° C | 83% | 1018.4 hPa | 0 mm | - | 552 W/m² | - |
| 1777732232 | 16.67° C | 84% | 1018.5 hPa | 0 mm | - | 495 W/m² | - |
| 1777731929 | 16.67° C | 85% | 1018.3 hPa | 0 mm | - | 462 W/m² | - |
| 1777731626 | 16.67° C | 85% | 1018.4 hPa | 0 mm | - | 410 W/m² | - |
| 1777731323 | 17.22° C | 86% | 1018.3 hPa | 0 mm | - | 387 W/m² | - |
| 1777731021 | 16.67° C | 88% | 1018.3 hPa | 0 mm | - | 362 W/m² | - |
| 1777730719 | 16.11° C | 88% | 1018 hPa | 0 mm | - | 342 W/m² | - |
| 1777730415 | 15.56° C | 89% | 1018.3 hPa | 0 mm | - | 309 W/m² | - |
* Rain latest hour (hover to see other rain measurements)
** Current wind speed in m/s (hover to see current wind gust speed)